• In Belarus
  • List of Countries
  • For 7 days
  • Water Temperature
  • Weather Map
  • Weather Widgets
  • user-avatar
    Login

    Hourly Weather Anelino

    Today, 17 September, Tuesday

    Time Temperature Precipitation Wind Pressure Humidity
    00:00 +6°C° 0 mm 5 mps 731 mmHg 86%
    01:00 +6°C° 0 mm 5 mps 731 mmHg 88%
    02:00 +6°C° 0 mm 5 mps 731 mmHg 90%
    03:00 +6°C° 0 mm 5 mps 730 mmHg 90%
    04:00 +5°C° 0 mm 5 mps 730 mmHg 90%
    05:00 +5°C° 0 mm 5 mps 730 mmHg 90%
    06:00 +5°C° 0 mm 6 mps 730 mmHg 86%
    07:00 +7°C° 0 mm 6 mps 730 mmHg 81%
    08:00 +8°C° 0 mm 7 mps 730 mmHg 77%
    09:00 +8°C° 0 mm 7 mps 730 mmHg 73%
    10:00 +9°C° 0 mm 7 mps 730 mmHg 70%
    11:00 +10°C° 0 mm 7 mps 730 mmHg 66%
    12:00 +10°C° 0.1 mm 7 mps 730 mmHg 65%
    13:00 +11°C° 0.1 mm 7 mps 730 mmHg 64%
    14:00 +11°C° 0.1 mm 6 mps 730 mmHg 62%
    15:00 +12°C° 0.1 mm 5 mps 730 mmHg 65%
    16:00 +10°C° 0.1 mm 5 mps 729 mmHg 68%
    17:00 +11°C° 0.1 mm 4 mps 729 mmHg 72%
    18:00 +10°C° 0 mm 3 mps 729 mmHg 75%
    19:00 +9°C° 0 mm 3 mps 728 mmHg 78%
    20:00 +7°C° 0 mm 3 mps 728 mmHg 82%
    21:00 +8°C° 0.3 mm 3 mps 728 mmHg 85%
    22:00 +8°C° 0.3 mm 3 mps 727 mmHg 89%
    23:00 +8°C° 0.3 mm 3 mps 727 mmHg 93%

    Tomorrow, 18 September, Wednesday

    Time Temperature Precipitation Wind Pressure Humidity
    00:00 +7°C° 1.2 mm 4 mps 726 mmHg 93%
    01:00 +7°C° 1.2 mm 4 mps 726 mmHg 93%
    02:00 +7°C° 1.2 mm 4 mps 726 mmHg 93%
    03:00 +6°C° 0.1 mm 4 mps 725 mmHg 93%
    04:00 +5°C° 0.1 mm 4 mps 725 mmHg 93%
    05:00 +5°C° 0.1 mm 3 mps 725 mmHg 94%
    06:00 +5°C° 0 mm 4 mps 725 mmHg 92%
    07:00 +5°C° 0 mm 4 mps 725 mmHg 91%
    08:00 +5°C° 0 mm 4 mps 725 mmHg 89%
    09:00 +6°C° 0 mm 4 mps 726 mmHg 86%
    10:00 +6°C° 0 mm 4 mps 727 mmHg 83%
    11:00 +7°C° 0 mm 4 mps 727 mmHg 80%
    12:00 +7°C° 0.1 mm 4 mps 727 mmHg 78%
    13:00 +8°C° 0.1 mm 5 mps 728 mmHg 76%
    14:00 +8°C° 0.1 mm 5 mps 728 mmHg 74%
    15:00 +8°C° 0 mm 5 mps 729 mmHg 77%
    16:00 +8°C° 0 mm 5 mps 729 mmHg 80%
    17:00 +8°C° 0 mm 4 mps 730 mmHg 84%
    18:00 +7°C° 0 mm 4 mps 730 mmHg 86%
    19:00 +7°C° 0 mm 4 mps 731 mmHg 88%
    20:00 +6°C° 0 mm 4 mps 731 mmHg 91%
    21:00 +5°C° 0 mm 4 mps 732 mmHg 92%
    22:00 +5°C° 0 mm 4 mps 732 mmHg 93%
    23:00 +4°C° 0 mm 3 mps 733 mmHg 95%

    Day after tomorrow, 19 September, Thursday

    Time Temperature Precipitation Wind Pressure Humidity
    00:00 +4°C° 0 mm 3 mps 733 mmHg 95%
    01:00 +3°C° 0 mm 3 mps 733 mmHg 96%
    02:00 +3°C° 0 mm 3 mps 734 mmHg 96%
    03:00 +3°C° 0 mm 3 mps 734 mmHg 96%
    04:00 +4°C° 0 mm 3 mps 734 mmHg 96%
    05:00 +4°C° 0 mm 3 mps 735 mmHg 96%
    06:00 +5°C° 0 mm 3 mps 735 mmHg 95%
    07:00 +5°C° 0 mm 3 mps 736 mmHg 93%
    08:00 +7°C° 0 mm 3 mps 736 mmHg 92%
    09:00 +7°C° 0.2 mm 3 mps 737 mmHg 90%
    10:00 +8°C° 0.2 mm 3 mps 737 mmHg 87%
    11:00 +8°C° 0.2 mm 3 mps 737 mmHg 85%
    12:00 +9°C° 0.2 mm 3 mps 738 mmHg 80%
    13:00 +9°C° 0.2 mm 2 mps 738 mmHg 76%
    14:00 +9°C° 0.2 mm 2 mps 738 mmHg 72%
    15:00 +9°C° 0.1 mm 2 mps 738 mmHg 74%
    16:00 +9°C° 0.1 mm 2 mps 738 mmHg 76%
    17:00 +8°C° 0.1 mm 2 mps 738 mmHg 77%
    18:00 +7°C° 0 mm 2 mps 739 mmHg 81%
    19:00 +6°C° 0 mm 2 mps 739 mmHg 85%
    20:00 +4°C° 0 mm 2 mps 739 mmHg 89%
    21:00 +5°C° 0 mm 1 mps 739 mmHg 90%
    22:00 +4°C° 0 mm 1 mps 738 mmHg 90%
    23:00 +3°C° 0 mm 0 mps 738 mmHg 90%

    20 September, Friday

    Time Temperature Precipitation Wind Pressure Humidity
    00:00 +3°C° 0 mm 0 mps 738 mmHg 90%
    01:00 +2°C° 0 mm 0 mps 738 mmHg 90%
    02:00 +2°C° 0 mm 0 mps 738 mmHg 89%
    03:00 +3°C° 0 mm 1 mps 738 mmHg 90%
    04:00 +3°C° 0 mm 1 mps 738 mmHg 90%
    05:00 +3°C° 0 mm 1 mps 738 mmHg 90%
    06:00 +3°C° 0 mm 2 mps 738 mmHg 88%
    07:00 +3°C° 0 mm 3 mps 738 mmHg 86%
    08:00 +3°C° 0 mm 3 mps 738 mmHg 84%
    09:00 +4°C° 0 mm 4 mps 739 mmHg 80%
    10:00 +5°C° 0 mm 4 mps 740 mmHg 77%
    11:00 +6°C° 0 mm 5 mps 740 mmHg 74%
    12:00 +6°C° 0.1 mm 5 mps 740 mmHg 75%
    13:00 +6°C° 0.1 mm 4 mps 741 mmHg 76%
    14:00 +6°C° 0.1 mm 4 mps 741 mmHg 77%
    15:00 +7°C° 0.1 mm 3 mps 741 mmHg 77%
    16:00 +7°C° 0.1 mm 3 mps 741 mmHg 77%
    17:00 +7°C° 0.1 mm 3 mps 742 mmHg 76%
    18:00 +5°C° 0 mm 3 mps 742 mmHg 81%
    19:00 +3°C° 0 mm 3 mps 743 mmHg 85%
    20:00 +2°C° 0 mm 3 mps 743 mmHg 89%
    21:00 +3°C° 0 mm 2 mps 744 mmHg 90%
    22:00 +2°C° 0 mm 2 mps 744 mmHg 91%
    23:00 +2°C° 0 mm 2 mps 744 mmHg 92%

    21 September, Saturday

    Time Temperature Precipitation Wind Pressure Humidity
    00:00 +1°C° 0 mm 2 mps 745 mmHg 92%
    01:00 +1°C° 0 mm 2 mps 745 mmHg 93%
    02:00 +1°C° 0 mm 2 mps 745 mmHg 93%
    03:00 -1°C° 0 mm 2 mps 745 mmHg 93%
    04:00 -1°C° 0 mm 2 mps 745 mmHg 94%
    05:00 -1°C° 0 mm 3 mps 746 mmHg 94%
    06:00 0°C° 0 mm 3 mps 746 mmHg 91%
    07:00 +1°C° 0 mm 3 mps 746 mmHg 87%
    08:00 +2°C° 0 mm 3 mps 746 mmHg 83%
    09:00 +3°C° 0 mm 3 mps 747 mmHg 77%
    10:00 +5°C° 0 mm 3 mps 747 mmHg 70%
    11:00 +7°C° 0 mm 3 mps 747 mmHg 64%
    12:00 +8°C° 0 mm 3 mps 747 mmHg 62%
    13:00 +8°C° 0 mm 3 mps 746 mmHg 60%
    14:00 +9°C° 0 mm 3 mps 746 mmHg 58%
    15:00 +8°C° 0 mm 3 mps 746 mmHg 62%
    16:00 +8°C° 0 mm 3 mps 745 mmHg 66%
    17:00 +7°C° 0 mm 3 mps 745 mmHg 71%
    18:00 +6°C° 0.4 mm 4 mps 745 mmHg 78%
    19:00 +5°C° 0.4 mm 4 mps 744 mmHg 84%
    20:00 +4°C° 0.4 mm 4 mps 744 mmHg 91%
    21:00 +5°C° 0.5 mm 4 mps 744 mmHg 93%
    22:00 +5°C° 0.5 mm 4 mps 743 mmHg 95%
    23:00 +6°C° 0.5 mm 4 mps 743 mmHg 96%

    22 September, Sunday

    Time Temperature Precipitation Wind Pressure Humidity
    00:00 +6°C° 0.4 mm 4 mps 743 mmHg 97%
    01:00 +7°C° 0.4 mm 4 mps 742 mmHg 97%
    02:00 +7°C° 0.4 mm 4 mps 742 mmHg 97%
    03:00 +8°C° 0.1 mm 4 mps 742 mmHg 97%
    04:00 +8°C° 0.1 mm 4 mps 742 mmHg 96%
    05:00 +8°C° 0.1 mm 5 mps 743 mmHg 96%
    06:00 +9°C° 0 mm 5 mps 743 mmHg 95%
    07:00 +9°C° 0 mm 5 mps 743 mmHg 93%
    08:00 +9°C° 0 mm 5 mps 743 mmHg 92%
    09:00 +9°C° 0 mm 5 mps 744 mmHg 91%
    10:00 +10°C° 0 mm 5 mps 744 mmHg 89%
    11:00 +10°C° 0 mm 5 mps 745 mmHg 88%
    12:00 +10°C° 0 mm 5 mps 745 mmHg 87%
    13:00 +11°C° 0 mm 4 mps 745 mmHg 86%
    14:00 +11°C° 0 mm 4 mps 745 mmHg 86%
    15:00 +11°C° 0 mm 4 mps 745 mmHg 86%
    16:00 +11°C° 0 mm 3 mps 746 mmHg 86%
    17:00 +11°C° 0 mm 3 mps 746 mmHg 86%
    18:00 +12°C° 0 mm 2 mps 746 mmHg 88%
    19:00 +12°C° 0 mm 2 mps 746 mmHg 90%
    20:00 +10°C° 0 mm 2 mps 747 mmHg 91%
    21:00 +10°C° 0 mm 2 mps 747 mmHg 92%
    22:00 +9°C° 0 mm 2 mps 747 mmHg 94%
    23:00 +9°C° 0 mm 2 mps 747 mmHg 95%
    Show more